[[{"header":{"parameterUnit":"m.s-1","parameterCategory":1,"la1":30.2991,"la2":30.254,"lo1":-89.0895,"lo2":-89.0444,"dy":0.0017,"dx":0.0017,"nx":28,"ny":28,"refTime":"2023-09-01T03:00:00:Z","depth":0,"parameterNumber":2,"parameterNumberName":"U-component_of_WINDS"},"data":[0,0,0,0,0,0,0,0,0,0,0,0,0,0,0,0,0,0,0,0,0,0,0,0,0,0,0,0,0,0,0,0,0,0,0,0,0,0,0,0,0,0,0,0,0,0,0,0,0,0,0,0,0,0,0,0,0,0,0.729,0.729,0,0.7282,0.7282,0.7282,0.7173,0.7171,0.7168,0.7165,0.716,0.7162,0.7165,0,0,0,0,0,0,0,0,0,0,0,0,0,0.7215,0.7217,0.729,0.729,0.729,0.7282,0.7282,0.7282,0.7174,0.717,0.7167,0.7164,0.7159,0.7162,0.7165,0,0,0,0,0,0,0,0,0,0,0,0,0,0.7232,0.7218,0.729,0.7235,0.723,0.7282,0.7282,0.7282,0.7175,0.717,0.7166,0.7162,0.7158,0.7162,0.7165,0.727,0,0,0.7176,0.7178,0,0,0,0,0,0,0,0,0.7231,0.7235,0.7243,0.7239,0.7233,0.7224,0.7253,0.7278,0.7176,0.7196,0.7165,0.716,0.7185,0.7186,0.7194,0.727,0.727,0.7177,0.7179,0.7181,0.7182,0,0,0,0,0,0,0,0.723,0.7234,0.7287,0.7244,0.7238,0.7212,0.7209,0.7257,0.7214,0.7194,0.7186,0.7186,0.7181,0.719,0.7193,0.727,0.7177,0.718,0.7182,0.7184,0.7432,0.7436,0,0,0,0,0,0,0.7236,0.7234,0.7287,0.7287,0.7222,0.7216,0.7214,0.7232,0.7213,0.7206,0.719,0.7181,0.7186,0.7189,0.7192,0.7314,0.718,0.7184,0.7186,0.7427,0.7433,0.7437,0,0,0,0,0,0,0.7235,0.7242,0.7287,0.7258,0.7262,0.7222,0.7243,0.7234,0.7242,0.721,0.7202,0.7207,0.7183,0.7187,0.7251,0.7312,0.7186,0.7189,0.7422,0.7429,0.7435,0.7558,0,0,0,0,0,0,0.7233,0.7242,0.7281,0.726,0.7264,0.7347,0.7246,0.7236,0.7248,0.7237,0.7224,0.7217,0.718,0.7247,0.7255,0.7315,0.7192,0.7416,0.7425,0.7433,0.7548,0.7568,0.7585,0,0,0,0,0,0.7231,0.7317,0.7283,0.729,0.7312,0.735,0.7353,0.7307,0.7254,0.7293,0.7272,0.7218,0.7304,0.7254,0.7263,0.7325,0.7412,0.7423,0.7432,0.754,0.7564,0.7584,0,0,0,0,0,0,0.7347,0.7313,0.7276,0.7357,0.7357,0.7332,0.738,0.7334,0.735,0.7339,0.7283,0.7281,0.7354,0.7345,0.729,0.7425,0.7349,0.7361,0.7428,0.745,0.7468,0.7469,0.7195,0,0,0,0,0,0.7382,0.7415,0.7384,0.7459,0.746,0.7421,0.7436,0.74,0.7399,0.7399,0.7382,0.7384,0.7411,0.743,0.7453,0.7546,0.7542,0.7593,0.7611,0.7627,0.7638,0.7687,0.7709,0.747,0.747,0.747,0,0,0.7455,0.744,0.7465,0.7481,0.7477,0.7514,0.7421,0.7464,0.7491,0.7405,0.7465,0.7453,0.7451,0.753,0.7564,0.7525,0.7703,0.7639,0.7652,0.7655,0.7699,0.7722,0.7742,0.7477,0.7475,0.7474,0,0,0.7606,0.7598,0.7659,0.7657,0.7652,0.7624,0.7639,0.7621,0.7609,0.7668,0.7605,0.7636,0.7684,0.7685,0.7692,0.7844,0.7795,0.7853,0.7948,0.7997,0.8015,0.8032,0.8086,0.8106,0.7864,0.7864,0.7865,0,0.7697,0.7748,0.7697,0.7743,0.7753,0.7676,0.7738,0.7739,0.7743,0.7751,0.7707,0.7766,0.7759,0.7837,0.7874,0.7882,0.7898,0.7854,0.8017,0.8033,0.8047,0.8098,0.8119,0.7872,0.7871,0.787,0.7869,0,0.7861,0.7898,0.7948,0.7952,0.7967,0.8022,0.7979,0.8001,0.7965,0.7943,0.8003,0.7992,0.8012,0.8028,0.7993,0.8102,0.8078,0.8026,0.7949,0.8078,0.8125,0.8144,0.7882,0.7879,0.7877,0.7875,0,0,0.8086,0.806,0.8079,0.808,0.8069,0.8097,0.8148,0.8166,0.8186,0.8191,0.8233,0.8275,0.8227,0.8235,0.8199,0.8242,0.8363,0.8185,0.8184,0.8219,0.8482,0.8521,0.8545,0.833,0.8334,0.8336,0.8482,0,0.8231,0.8316,0.8271,0.8363,0.8396,0.8324,0.8368,0.8367,0.8347,0.8374,0.8352,0.8383,0.8318,0.8322,0.836,0.834,0.8415,0.8329,0.8369,0.8371,0.8372,0.8569,0.8611,0.8749,0.85,0.8504,0.8506,0,0.8413,0.8424,0.8519,0.8501,0.8513,0.8554,0.8567,0.8593,0.859,0.8573,0.8582,0.8536,0.8586,0.8509,0.8577,0.8519,0.8533,0.8525,0.853,0.8532,0.8447,0.8578,0.8792,0.8813,0.8534,0.8532,0.853,0,0.8567,0.8607,0.8668,0.8671,0.8652,0.8682,0.8676,0.8668,0.8682,0.8694,0.8702,0.872,0.873,0.8746,0.8706,0.8654,0.878,0.8699,0.8768,0.8769,0.8798,0.8797,0.9019,0.8807,0.8807,0.8806,0.8806,0,0.8735,0.8796,0.8737,0.8775,0.8841,0.8789,0.8856,0.8842,0.8836,0.8871,0.881,0.8844,0.8789,0.8818,0.8788,0.8849,0.8854,0.8842,0.8834,0.8848,0.885,0.8857,0.8846,0.8812,0.881,0.8809,0.8808,0,0.8919,0.8882,0.8944,0.892,0.8916,0.8966,0.8946,0.898,0.8957,0.9001,0.9009,0.8972,0.9002,0.8965,0.8992,0.8972,0.9055,0.9032,0.9056,0.905,0.912,0.9114,0.9354,0.9383,0.9153,0.9155,0.9157,0,0.9028,0.9073,0.9054,0.9072,0.9069,0.91,0.9113,0.9064,0.9081,0.908,0.9115,0.9141,0.9158,0.9211,0.9187,0.9208,0.9185,0.9268,0.9188,0.9201,0.9186,0.9184,0.9189,0.9284,0.9287,0.9289,0.9291,0,0.9227,0.9206,0.9227,0.9243,0.9261,0.9271,0.9276,0.9295,0.9243,0.9265,0.9295,0.9309,0.9337,0.9363,0.9377,0.9371,0.9324,0.9316,0.9333,0.9348,0.9361,0.9355,0.9101,0.9311,0.9309,0.9308,0.9306,0.9306,0.9376,0.9413,0.9405,0.9431,0.943,0.9437,0.9468,0.9448,0.9472,0.949,0.9459,0.9498,0.9493,0.9507,0.9507,0.9536,0.9501,0.9525,0.9532,0.9539,0.9549,0.9356,0.9539,0.9538,0.9538,0.9537,0.9537,0,0.9572,0.9563,0.9587,0.9596,0.9617,0.9569,0.9573,0.9594,0.9628,0.9627,0.9646,0.9681,0.9706,0.9684,0.9704,0.9732,0.9711,0.974,0.9737,0.9737,0.958,0.9563,0.9757,0.9757,0.9756,0.9756,0.9756,0.9756,0.9676,0.9735,0.9714,0.9772,0.9763,0.9799,0.9805,0.9811,0.9811,0.9852,0.9872,0.9858,0.9849,0.9868,0.9889,0.9882,0.9893,0.993,0.9915,0.9769,0.9748,0.9727,0.9711,0.9932,0.9933,1.0069,1.007,1.0071]},{"header":{"parameterUnit":"m.s-1","parameterCategory":1,"la1":30.2991,"la2":30.254,"lo1":-89.0895,"lo2":-89.0444,"dy":0.0017,"dx":0.0017,"nx":28,"ny":28,"refTime":"2023-09-01T03:00:00:Z","depth":0,"parameterNumber":3,"parameterNumberName":"V-component_of_WINDS"},"data":[0,0,0,0,0,0,0,0,0,0,0,0,0,0,0,0,0,0,0,0,0,0,0,0,0,0,0,0,0,0,0,0,0,0,0,0,0,0,0,0,0,0,0,0,0,0,0,0,0,0,0,0,0,0,0,0,0,0,-1.0443,-1.0442,0,-1.0348,-1.0347,-1.0346,-1.0351,-1.0353,-1.0354,-1.0356,-1.0246,-1.0242,-1.0238,0,0,0,0,0,0,0,0,0,0,0,0,0,-1.0614,-1.0611,-1.0443,-1.0442,-1.044,-1.0349,-1.0347,-1.0346,-1.0351,-1.0353,-1.0355,-1.0356,-1.0248,-1.0243,-1.0238,0,0,0,0,0,0,0,0,0,0,0,0,0,-1.0532,-1.061,-1.0443,-1.0432,-1.043,-1.0349,-1.0347,-1.0346,-1.0351,-1.0353,-1.0355,-1.0357,-1.0249,-1.0243,-1.0237,-1.0156,0,0,-1.0218,-1.0215,0,0,0,0,0,0,0,0,-1.0536,-1.0525,-1.0435,-1.0433,-1.0431,-1.0364,-1.0368,-1.0282,-1.035,-1.0381,-1.0356,-1.0358,-1.0283,-1.0274,-1.0251,-1.0151,-1.0146,-1.0217,-1.0213,-1.021,-1.0209,0,0,0,0,0,0,0,-1.0542,-1.0529,-1.0405,-1.0434,-1.0431,-1.0428,-1.0419,-1.0351,-1.0321,-1.0378,-1.0378,-1.0368,-1.0282,-1.0257,-1.0249,-1.0145,-1.0217,-1.0212,-1.0208,-1.0205,-0.9969,-0.9967,0,0,0,0,0,0,-1.0552,-1.0534,-1.0408,-1.0402,-1.049,-1.0423,-1.0413,-1.0383,-1.0322,-1.0315,-1.0366,-1.0368,-1.0267,-1.0256,-1.0245,-1.0144,-1.0211,-1.0205,-1.0201,-0.9971,-0.9968,-0.9966,0,0,0,0,0,0,-1.0556,-1.0541,-1.0412,-1.0468,-1.0452,-1.0418,-1.0385,-1.038,-1.0356,-1.0313,-1.0306,-1.0347,-1.0268,-1.0254,-1.0178,-1.014,-1.0202,-1.0196,-0.9974,-0.9971,-0.9967,-0.9942,0,0,0,0,0,0,-1.0561,-1.0542,-1.0514,-1.0468,-1.0449,-1.0351,-1.0383,-1.0377,-1.0346,-1.0348,-1.0293,-1.0286,-1.0269,-1.0188,-1.0172,-1.0132,-1.0191,-0.9978,-0.9973,-0.9968,-0.9946,-0.9938,-0.9931,0,0,0,0,0,-1.0567,-1.0509,-1.0513,-1.0497,-1.0414,-1.0349,-1.0337,-1.0322,-1.0343,-1.0313,-1.0285,-1.0288,-1.0148,-1.018,-1.0162,-1.012,-0.998,-0.9974,-0.9969,-0.995,-0.994,-0.9932,0,0,0,0,0,0,-1.0547,-1.0502,-1.0506,-1.0433,-1.0395,-1.035,-1.0311,-1.0313,-1.0265,-1.0268,-1.0248,-1.0235,-1.0159,-1.0132,-1.0169,-1.0037,-1.0066,-1.0056,-1.0057,-1.0047,-1.004,-1.0047,-1.0186,0,0,0,0,0,-1.0535,-1.049,-1.0452,-1.039,-1.0371,-1.0344,-1.0315,-1.0308,-1.0266,-1.0248,-1.0215,-1.0171,-1.0116,-1.0081,-1.0029,-0.9943,-0.9929,-0.9905,-0.9898,-0.9892,-0.9883,-0.9832,-0.982,-0.9947,-0.9947,-0.9948,0,0,-1.0508,-1.0478,-1.045,-1.0385,-1.0355,-1.0305,-1.0331,-1.0277,-1.0237,-1.0239,-1.0166,-1.014,-1.0088,-1.0007,-0.9969,-0.9982,-0.9845,-0.9885,-0.988,-0.9874,-0.9825,-0.9813,-0.9802,-0.9944,-0.9944,-0.9945,0,0,-1.0433,-1.0407,-1.0352,-1.0322,-1.0277,-1.026,-1.0247,-1.0201,-1.0185,-1.0113,-1.0112,-1.0063,-0.9971,-0.9933,-0.9902,-0.9812,-0.9812,-0.9795,-0.9755,-0.9706,-0.9696,-0.9687,-0.9651,-0.9639,-0.9787,-0.9787,-0.9787,0,-1.0403,-1.0332,-1.0322,-1.0268,-1.0238,-1.0241,-1.0182,-1.0152,-1.0091,-1.0067,-1.0084,-0.9968,-0.9934,-0.9842,-0.982,-0.9796,-0.9776,-0.9801,-0.9699,-0.969,-0.9681,-0.9647,-0.9634,-0.9785,-0.9786,-0.9786,-0.9786,0,-1.0296,-1.0246,-1.0206,-1.0151,-1.0116,-1.006,-1.0038,-1.0003,-0.9998,-0.9977,-0.9901,-0.986,-0.9799,-0.9777,-0.977,-0.9683,-0.9692,-0.9704,-0.9732,-0.9667,-0.9634,-0.9621,-0.9783,-0.9783,-0.9784,-0.9784,0,0,-1.0204,-1.0146,-1.0131,-1.0105,-1.0056,-1.0015,-0.9957,-0.9901,-0.987,-0.9827,-0.9775,-0.9697,-0.9707,-0.9672,-0.966,-0.9618,-0.9545,-0.9634,-0.9632,-0.9616,-0.9442,-0.9432,-0.9418,-0.9546,-0.9543,-0.9541,-0.9446,0,-1.0122,-1.0024,-1.0014,-0.9924,-0.9875,-0.9877,-0.9826,-0.9788,-0.9766,-0.9718,-0.9693,-0.9637,-0.9657,-0.9635,-0.9593,-0.9563,-0.9509,-0.957,-0.9492,-0.9489,-0.9502,-0.9401,-0.939,-0.9302,-0.9433,-0.9431,-0.943,0,-1.0012,-0.9971,-0.9877,-0.9834,-0.9813,-0.9768,-0.9714,-0.967,-0.9625,-0.9612,-0.9573,-0.9567,-0.9502,-0.9535,-0.9442,-0.9484,-0.9451,-0.9431,-0.9427,-0.9416,-0.9454,-0.9385,-0.9274,-0.926,-0.941,-0.9411,-0.9413,0,-0.9951,-0.9871,-0.9805,-0.9783,-0.9731,-0.9699,-0.9674,-0.9632,-0.9599,-0.955,-0.9527,-0.9471,-0.9439,-0.9393,-0.937,-0.9397,-0.9277,-0.9309,-0.9261,-0.9261,-0.9233,-0.9235,-0.9113,-0.9217,-0.9217,-0.9218,-0.9218,0,-0.9858,-0.98,-0.9777,-0.9735,-0.9669,-0.9656,-0.9589,-0.9565,-0.9527,-0.9478,-0.9475,-0.9428,-0.9402,-0.9349,-0.933,-0.9254,-0.924,-0.9224,-0.9219,-0.9223,-0.9225,-0.9199,-0.9204,-0.9214,-0.9215,-0.9215,-0.9216,0,-0.9778,-0.976,-0.9687,-0.9645,-0.9633,-0.9586,-0.9547,-0.9505,-0.9485,-0.9422,-0.9406,-0.9372,-0.931,-0.9283,-0.9205,-0.9193,-0.9105,-0.9106,-0.9121,-0.9119,-0.9071,-0.9075,-0.8926,-0.8904,-0.9026,-0.9024,-0.9024,0,-0.9719,-0.9675,-0.9629,-0.9598,-0.9574,-0.9524,-0.949,-0.9474,-0.9439,-0.9384,-0.9346,-0.9285,-0.9236,-0.9135,-0.91,-0.904,-0.9037,-0.8989,-0.9028,-0.9032,-0.9032,-0.9034,-0.9028,-0.8981,-0.898,-0.8979,-0.8978,0,-0.9614,-0.9608,-0.9563,-0.9513,-0.9474,-0.9434,-0.9393,-0.9367,-0.9344,-0.9303,-0.9242,-0.9204,-0.9126,-0.9063,-0.9001,-0.8971,-0.8968,-0.8967,-0.8952,-0.8954,-0.8963,-0.8954,-0.9099,-0.897,-0.897,-0.8971,-0.8972,-0.8972,-0.954,-0.9501,-0.9462,-0.9411,-0.938,-0.9342,-0.93,-0.9276,-0.9226,-0.9164,-0.9157,-0.909,-0.9043,-0.896,-0.8927,-0.8871,-0.8883,-0.8862,-0.8856,-0.885,-0.8846,-0.8975,-0.886,-0.886,-0.886,-0.886,-0.8861,0,-0.9433,-0.9409,-0.9362,-0.9308,-0.9266,-0.9274,-0.923,-0.9193,-0.9136,-0.9094,-0.9046,-0.8974,-0.8913,-0.8874,-0.8812,-0.8774,-0.8771,-0.8758,-0.8759,-0.8751,-0.8841,-0.8859,-0.8761,-0.8761,-0.8761,-0.8761,-0.8761,-0.8761,-0.9373,-0.9305,-0.9294,-0.9209,-0.9184,-0.9123,-0.9096,-0.906,-0.9027,-0.8948,-0.8899,-0.8876,-0.8834,-0.8768,-0.8711,-0.8701,-0.8676,-0.8661,-0.8651,-0.8735,-0.8745,-0.8755,-0.8771,-0.8657,-0.8657,-0.8566,-0.8565,-0.8564]}]]